Regional Weather Roundup
Issued by NWS

Home | Current Version | Previous Version | Text Only | Print | Product List | Glossary Off
Versions: 1 2 3 4 5 6 7 8 9 10 11 12 13 14 15 16 17 18 19 20 21 22 23 24 25 26 27 28 29 30 31 32 33 34 35 36 37 38 39 40 41 42 43 44 45 46 47 48 49 50

000
ASUS43 KIND 221709
RWRIN

WEATHER ROUNDUP FOR INDIANA
NATIONAL WEATHER SERVICE INDIANAPOLIS IN
1200 PM EST SUN JAN 22 2017

NOTE: "FAIR" INDICATES FEW OR NO CLOUDS BELOW 12,000 FEET WITH NO
SIGNIFICANT WEATHER AND/OR OBSTRUCTIONS TO VISIBILITY.

* - STATION DOES NOT REPORT WEATHER SUCH AS PRECIPITATION OR FOG.

+ - STATION NOT QUALITY CONTROLLED BY THE NATIONAL WEATHER SERVICE.
    USE DATA WITH CAUTION...ESPECIALLY DEWPOINT AND RELATIVE
    HUMIDITY OBSERVATIONS.

INZ001>003-010>013-019-020-221800-
NORTHWEST INDIANA

CITY           SKY/WX    TMP DP  RH WIND       PRES   REMARKS
GARY /AIRPORT/ FOG       39  39 100 NE5       29.66S VSB 1/4
KNOX *+        CLOUDY    41  34  75 N7        29.62F VSB 1/2
LA PORTE +     CLOUDY    41  41 100 N5        29.63F FOG
MICHIGAN CITY+ CLOUDY    41  41 100 NE5       29.64F FOG
MONTICELLO +   CLOUDY    47  46  95 N6        29.60F
RENSSELAER +   FOG       39  39 100 N7        29.61F VSB 1/2
VALPARAISO     CLOUDY    44  43  96 N7        29.63F FOG

$$

LMZ046-743>745-221800-
SOUTHERN LAKE MICHIGAN

STATION/POSITION TIME  TEMP    WIND        PRES    WAVE
                       AIR SEA DIR/SP/G            HT
                 (UTC) (F)     (DEG/KT/KT) (MB)    (FT)
BURNS HARBOR     1640   35      60/  7/  8 1004.7F
MICHIGAN CITY    1640   36      20/  8/  8   N/A

$$

INZ004-005-014>016-021>024-221800-
NORTH CENTRAL INDIANA

CITY           SKY/WX    TMP DP  RH WIND       PRES   REMARKS
ELKHART        FOG       41  41 100 CALM      29.61F VSB 1
GOSHEN         FOG       46  44  93 N6        29.61F VSB 1/4
LOGANSPORT +   CLOUDY    52  48  87 N3        29.59F
PERU/GRISSOM   PTSUNNY   53  52  97 CALM      29.57F
ROCHESTER +    PTSUNNY   46  46 100 N5        29.61F
SOUTH BEND     FOG       41  41 100 N6        29.63F VSB 1/4
WARSAW +       CLOUDY    45  45 100 CALM      29.61F

$$

INZ006>009-017-018-025>027-221800-
NORTHEAST INDIANA

CITY           SKY/WX    TMP DP  RH WIND       PRES   REMARKS
ANGOLA *+      SUNNY     52  52 100 CALM      29.59F
AUBURN +       CLOUDY    54  50  87 CALM      29.61F
FORT WAYNE     PTSUNNY   56  48  74 CALM      29.59F
HUNTINGTON +   MOSUNNY   54  49  83 CALM      29.59F
KENDALLVILLE + CLOUDY    49  49 100 CALM      29.61F FOG

$$

INZ028-029-035-036-043>045-051>053-221800-
WEST CENTRAL INDIANA

CITY           SKY/WX    TMP DP  RH WIND       PRES   REMARKS
CRAWFORDSVL +  MOSUNNY   56  52  86 CALM      29.56F
GREENCASTLE +  CLOUDY    54  50  87 NE3       29.56F
LAFAYETTE      MOSUNNY   53  50  89 N7        29.58F THUNDER
TERRE HAUTE    CLOUDY    56  50  80 NE5       29.54F

$$

INZ030>032-037>040-046>048-054>057-064-065-221800-
CENTRAL INDIANA

CITY           SKY/WX    TMP DP  RH WIND       PRES   REMARKS
CP ATTERBURY + CLOUDY    52  52 100 N5        29.54F
COLUMBUS       MOSUNNY   54  54 100 NE5       29.54F
FRANKFORT +    MOSUNNY   60  54  82 SE5       29.58F
GREENWOOD *+   CLOUDY    56  53  87 E5        29.56F
INDIANAPOLIS   PTSUNNY   55  50  83 NE5       29.55F
-EAGLE CREEK   PTSUNNY   58  50  75 E3        29.55F
KOKOMO +       PTSUNNY   54  50  86 SE5       29.58F
MARION +       CLOUDY    57  52  82 SE3       29.58F HAZE
MT COMFORT *+  PTSUNNY   55  52  88 E3        29.56F
SHELBYVILLE    MOSUNNY   58  51  78 NE7       29.54F
ZIONSVILLE +   MOSUNNY   60  51  73 E6        29.57F

$$

INZ033-034-041-042-049-050-058-059-221800-
EAST CENTRAL INDIANA

CITY           SKY/WX    TMP DP  RH WIND       PRES   REMARKS
MUNCIE         CLOUDY    60  51  72 E6        29.57F

$$

INZ060-061-067>069-081>083-085>088-221800-
SOUTHWEST INDIANA

CITY           SKY/WX    TMP DP  RH WIND       PRES   REMARKS
EVANSVILLE     CLOUDY    58  50  75 NE6       29.47F
HUNTINGBURG *+ CLOUDY    56  51  84 NE10      29.48F
WASHINGTON +   CLOUDY    55  50  85 NE6       29.50F

$$

INZ062-063-066-070>080-084-089>092-221800-
SOUTH CENTRAL AND SOUTHEAST INDIANA

CITY           SKY/WX    TMP DP  RH WIND       PRES   REMARKS
BLOOMINGTON    MOSUNNY   57  49  74 NE6       29.52F
MADISON *+     CLOUDY    55  50  82 NE8       29.52F
NORTH VERNON + CLOUDY   N/A N/A N/A NE8       29.54
SEYMOUR +      CLOUDY    57  52  82 N8        29.51F

$$




USA.gov is the U.S. government's official web portal to all federal, state and local government web resources and services.